Weather History for KRAL - September, 2013

Change the Weather History Date:

Sunday, September 1, 2013

  Actual Average Record
Temperature  
Mean Temperature 85 °F 79 °F  
Max Temperature 96 °F 93 °F 111 °F (2007)
Min Temperature 74 °F 64 °F 46 °F (1941)
Degree Days  
Heating Degree Days 0 0  
Month to date heating degree days 0 0  
Since 1 July heating degree days 0 0  
Cooling Degree Days 20 14  
Month to date cooling degree days 20 14  
Year to date cooling degree days 1489 1272  
Growing Degree Days 35 (Base 50)    
Moisture  
Dew Point 66 °F    
Average Humidity 55    
Maximum Humidity 74    
Minimum Humidity 36    
Precipitation  
Precipitation 0.00 in 0.00 in 0.00 in (2015)
Month to date precipitation 0.00 0.00  
Year to date precipitation 2.37 9.34  
Since 1 July precipitation 0.16 0.15  
Snow  
Snow 0.00 in - - ()
Month to date snowfall 0.0  
Year to date snowfall 0.0  
Since 1 July snowfall 0.0  
Snow Depth 0.00 in    
Sea Level Pressure  
Sea Level Pressure 29.86 in    
Wind  
Wind Speed 4 mph (West)    
Max Wind Speed 17 mph    
Max Gust Speed 23 mph    
Visibility 10 miles    
Events      
T = Trace of Precipitation, MM = Missing Value Source: NWS Daily Summary

Daily Weather History Graph

Daily Weather History Graph

Search for Another Location

Airport or City:

Trip Planner

Search our weather history database for the weather conditions in past years. The results will help you decide how hot, cold, wet, or windy it might be!

Date:

Astronomy

Sep. 01, 2013 Rise Set
Actual Time 6:23 AM PDT 7:15 PM PDT
Civil Twilight 5:58 AM PDT 7:40 PM PDT
Nautical Twilight 5:28 AM PDT 8:10 PM PDT
Astronomical Twilight 4:57 AM PDT 8:41 PM PDT
Moon 2:56 AM PDT (9/1) 4:50 PM PDT (9/1)
Length of Visible Light 13h 42m
Length of Day
12h 51m
Waning Crescent, 13% of the Moon is Illuminated
Sep 1
Waning Crescent
Sep 5
New
Sep 12
First Quarter
Sep 19
Full
Sep 26
Last Quarter

Hourly Weather History & Observations

Time (PDT) Temp. Heat Index Dew Point Humidity Pressure Visibility Wind Dir Wind Speed Gust Speed Precip Events Conditions
12:53 AM 78.1 °F - 66.9 °F 68% 29.89 in 10.0 mi Calm Calm - N/A   Clear
1:53 AM 77.0 °F - 66.9 °F 71% 29.88 in 10.0 mi Calm Calm - N/A   Clear
2:53 AM 75.9 °F - 66.0 °F 71% 29.87 in 10.0 mi West 3.5 mph - N/A   Clear
3:53 AM 75.9 °F - 66.9 °F 74% 29.87 in 10.0 mi Calm Calm - N/A   Clear
4:53 AM 75.9 °F - 66.9 °F 74% 29.88 in 10.0 mi Calm Calm - N/A   Clear
5:53 AM 75.9 °F - 66.0 °F 71% 29.88 in 10.0 mi Calm Calm - N/A   Clear
6:53 AM 75.0 °F - 66.0 °F 73% 29.89 in 10.0 mi Calm Calm - N/A   Clear
7:53 AM 75.9 °F - 64.9 °F 69% 29.90 in 10.0 mi Calm Calm - N/A   Clear
8:53 AM 78.1 °F - 66.0 °F 66% 29.90 in 10.0 mi Variable 3.5 mph - N/A   Clear
9:53 AM 82.0 °F 84.5 °F 66.9 °F 60% 29.90 in 10.0 mi Calm Calm - N/A   Clear
10:53 AM 86.0 °F 88.2 °F 66.0 °F 51% 29.89 in 10.0 mi WSW 3.5 mph - N/A   Scattered Clouds
11:53 AM 89.1 °F 91.3 °F 66.0 °F 46% 29.86 in 10.0 mi WSW 3.5 mph - N/A   Scattered Clouds
12:53 PM 93.0 °F 95.0 °F 64.9 °F 39% 29.85 in 10.0 mi West 8.1 mph - N/A   Scattered Clouds
1:53 PM 93.9 °F 96.1 °F 64.9 °F 38% 29.83 in 10.0 mi West 8.1 mph - N/A   Scattered Clouds
2:53 PM 95.0 °F 97.0 °F 64.0 °F 36% 29.81 in 10.0 mi West 10.4 mph 18.4 mph N/A   Scattered Clouds
3:53 PM 93.0 °F 94.6 °F 64.0 °F 38% 29.80 in 10.0 mi West 15.0 mph 23.0 mph N/A   Mostly Cloudy
4:53 PM 91.9 °F 94.1 °F 64.9 °F 41% 29.79 in 10.0 mi West 11.5 mph 20.7 mph N/A   Mostly Cloudy
5:53 PM 89.1 °F 91.0 °F 64.9 °F 45% 29.79 in 10.0 mi West 13.8 mph - N/A   Mostly Cloudy
6:53 PM 84.9 °F 87.1 °F 66.0 °F 53% 29.81 in 10.0 mi WSW 12.7 mph 17.3 mph N/A   Mostly Cloudy
7:53 PM 82.0 °F 84.1 °F 66.0 °F 58% 29.83 in 10.0 mi West 5.8 mph - N/A   Mostly Cloudy
8:53 PM 80.1 °F 82.1 °F 66.0 °F 62% 29.86 in 10.0 mi Calm Calm - N/A   Clear
9:53 PM 79.0 °F - 64.9 °F 62% 29.87 in 10.0 mi West 3.5 mph - N/A   Clear
10:53 PM 78.1 °F - 64.9 °F 64% 29.87 in 10.0 mi West 3.5 mph - N/A   Clear
11:53 PM 78.1 °F - 64.0 °F 62% 29.87 in 10.0 mi Calm Calm - N/A   Clear